User: anonymous   Login
Location: Tierra del Sol
(32.6128°N, 116.3319°W)
Time: 17:08:40
(UTC-08:00)
Language:

ISS - Orbit

View from above orbital plane
View from above orbital plane
View from above satellite
View from above satellite

Ground track
Ground track

The orbit data is extracted from the following two-line orbital elements,

1 25544U 98067A   18020.50012375  .00016717  00000-0  10270-3 0  9012
2 25544  51.6406  34.9661 0003447  28.7192 331.4150 15.54212866 15542
Epoch (UTC): 20 January 2018 12:00:10
Eccentricity: 0.0003447
inclination: 51.6406°
perigee height: 402 km
apogee height: 407 km
right ascension of ascending node: 34.9661°
argument of perigee: 28.7192°
revolutions per day: 15.54212866
mean anomaly at epoch: 331.4150°
orbit number at epoch: 1554

The dashed part of the orbit path shows where the satellite is in the earth's shadow,  

DLR